THOR ABLESTAR DEB, 134

Orbit data source: Space-Track

THOR ABLESTAR DEB, 134 is space debris in LEO originally from a launch on Thu, 29 Jun 1961 UTC launched from the Air Force Eastern Test Range (AFETR). Debris objects in space refer to the collection of defunct objects orbiting the Earth. Examples of debris include non-operational satellites, rocket bodies, and fragments generated from explosions, collisions, or faulty payload assembly.

Loading next visibility...
Identifier
134, 1961-015U
Orbit
LEO
Country
Flag of USUS
Related business
Manufacturer
Unknown
Mission
Spacecraft
Bus & Motor
Unknown
Mass
Unknown
Launch date (UTC)
1961-06-29 (65 years ago)
Launch vehicle
Unknown
Launch site
Air Force Eastern Test Range (AFETR)
Object type
Payload
Rocket body
Debris
Shape & HBR
Unknown shape, 1.1 m
Radar Cross Section
Large (>1 m²)

Expand to show TLE details & history
Last TLE update: 12 hours ago

TLE from 12 hours ago
0 THOR ABLESTAR DEB
1 00134U 61015U   26175.01360497  .00000043  00000-0  83017-4 0  9992
2 00134  66.8808  29.9501 0082541 191.3885 168.5334 13.97767122306652
Epoch: 2026-06-24T00:19Z
TLE epoch observation values (Epoch: 2026-06-24T00:19:35.469Z)
Latitude
0.00004°
Longitude
112.87542°
Altitude
962.54 km
Speed
7.341 km/s
True Right ascension
01h 59m 48s
True Declination
0° 00' 00"
Sunlit
Object was in daylight at epoch
Visualization orbit readout
Latitude
Unknown
Longitude
Unknown
Altitude
Unknown
Speed
Unknown
Apparent Right ascension
Unknown
Apparent Declination
Unknown
Sunlit
N/A
Visualization observer readout
Local Sidereal Time
23:28:14
Azimuth
Unknown
Elevation
Unknown
Doppler factor
Unknown
Orbital elements
Apogee altitude
959.99 km
Perigee altitude
839.842 km
Semi-major axis
7,278.053 km
Eccentricity
0.00825
Inclination
66.8808°
RAAN
29.9501°
Arg. of periapsis
191.3885°
True anomaly
168.71955°
Mean anomaly
168.5334°
Eccentric anomaly
168.62666°
Mean motion
3.49559 °/min
Orbital period
102.99 mins
BSTAR
0.000083017
Loading maneuver chart data...
Computing Atmospheric mass density...

Documentation

Showing up to 5 results
|